| time (UTC) | temp F | wind direction | speed MPH | gust MPH | rain 1hr in | rain 24hr in | rain mn in | humidity % | barometer mb |
| 20260504100551 | 75 | 330 | 0.0 | 0.0 | 0.00 | 0.00 | 0.00 | 84 | 1015.3 |
| 20260504081945 | 76 | 340 | 1.0 | 2.0 | 0.00 | 0.00 | 0.00 | 83 | 1015.1 |
| 20260504081442 | 76 | 331 | 3.0 | 3.0 | 0.00 | 0.00 | 0.00 | 83 | 1015.1 |
| 20260504080938 | 75 | 346 | 2.0 | 3.0 | 0.00 | 0.00 | 0.00 | 83 | 1014.7 |
| 20260504080435 | 75 | 328 | 1.0 | 2.0 | 0.00 | 0.00 | 0.00 | 83 | 1015.2 |
| 20260504070402 | 76 | 3 | 3.0 | 3.0 | 0.00 | 0.00 | 0.00 | 83 | 1015.5 |
| 20260504050750 | 76 | 312 | 2.0 | 2.0 | 0.00 | 0.00 | 0.00 | 84 | 1016.7 |
| 20260504050247 | 76 | 331 | 0.0 | 1.0 | 0.00 | 0.00 | 0.00 | 83 | 1016.6 |
| 20260504045744 | 76 | 342 | 0.0 | 0.0 | 0.00 | 0.00 | 0.00 | 84 | 1016.7 |
| 20260504045239 | 76 | 6 | 1.0 | 2.0 | 0.00 | 0.00 | 0.00 | 83 | 1016.7 |
| 20260504044737 | 76 | 348 | 2.0 | 2.0 | 0.00 | 0.00 | 0.00 | 83 | 1016.8 |
| 20260504044234 | 76 | 329 | 1.0 | 2.0 | 0.00 | 0.00 | 0.00 | 83 | 1016.7 |
| 20260504043731 | 76 | 88 | 1.0 | 1.0 | 0.00 | 0.00 | 0.00 | 83 | 1016.8 |
| 20260504043228 | 76 | 18 | 1.0 | 2.0 | 0.00 | 0.00 | 0.00 | 83 | 1016.9 |
| 20260504042726 | 76 | 6 | 1.0 | 1.0 | 0.00 | 0.00 | 0.00 | 83 | 1016.8 |
| 20260504042222 | 76 | 334 | 0.0 | 0.0 | 0.00 | 0.00 | 0.00 | 83 | 1017.1 |
| 20260504041718 | 76 | 333 | 0.0 | 0.0 | 0.00 | 0.00 | 0.00 | 82 | 1016.8 |
| 20260504041214 | 76 | 39 | 1.0 | 2.0 | 0.00 | 0.00 | 0.00 | 83 | 1017.0 |
| 20260504040710 | 76 | 326 | 0.0 | 0.0 | 0.00 | 0.00 | 0.00 | 83 | 1016.9 |
| 20260504040208 | 76 | 149 | 2.0 | 2.0 | 0.00 | 0.00 | 0.00 | 83 | 1017.2 |
| 20260504035704 | 76 | 134 | 3.0 | 3.0 | 0.00 | 0.22 | 0.22 | 83 | 1017.2 |
| 20260504035202 | 76 | 146 | 1.0 | 2.0 | 0.00 | 0.22 | 0.22 | 84 | 1017.2 |
| 20260504034659 | 76 | 331 | 0.0 | 0.0 | 0.00 | 0.22 | 0.22 | 84 | 1017.3 |
| 20260504034156 | 76 | 115 | 2.0 | 2.0 | 0.00 | 0.22 | 0.22 | 84 | 1017.1 |
| 20260504033654 | 76 | 112 | 3.0 | 3.0 | 0.00 | 0.22 | 0.22 | 84 | 1017.4 |
| 20260504033151 | 75 | 3 | 0.0 | 1.0 | 0.00 | 0.22 | 0.22 | 84 | 1017.3 |
| 20260504032647 | 75 | 311 | 1.0 | 1.0 | 0.00 | 0.22 | 0.22 | 84 | 1017.2 |
| 20260504032145 | 76 | 45 | 2.0 | 3.0 | 0.00 | 0.22 | 0.22 | 84 | 1017.5 |
| 20260504031642 | 75 | 58 | 2.0 | 2.0 | 0.00 | 0.22 | 0.22 | 84 | 1017.4 |
| 20260504031138 | 75 | 131 | 1.0 | 3.0 | 0.00 | 0.22 | 0.22 | 85 | 1017.4 |
| 20260504030634 | 75 | 332 | 0.0 | 0.0 | 0.00 | 0.22 | 0.22 | 85 | 1017.3 |
| 20260504030131 | 75 | 327 | 0.0 | 1.0 | 0.00 | 0.22 | 0.22 | 84 | 1017.4 |
| 20260504025628 | 75 | 357 | 0.0 | 1.0 | 0.00 | 0.22 | 0.22 | 85 | 1017.6 |
| 20260504025125 | 75 | 357 | 0.0 | 0.0 | 0.00 | 0.22 | 0.22 | 84 | 1017.4 |
| 20260504024622 | 75 | 18 | 3.0 | 3.0 | 0.00 | 0.22 | 0.22 | 84 | 1017.3 |
| 20260504024119 | 75 | 334 | 0.0 | 0.0 | 0.00 | 0.22 | 0.22 | 85 | 1017.3 |
| 20260504023615 | 75 | 347 | 0.0 | 0.0 | 0.00 | 0.22 | 0.22 | 85 | 1017.3 |
| 20260504023111 | 75 | 308 | 0.0 | 0.0 | 0.00 | 0.22 | 0.22 | 86 | 1017.1 |
| 20260504022608 | 75 | 339 | 0.0 | 1.0 | 0.00 | 0.22 | 0.22 | 86 | 1017.2 |
| 20260504022103 | 75 | 336 | 0.0 | 0.0 | 0.00 | 0.22 | 0.22 | 87 | 1017.2 |
| 20260504021602 | 74 | 17 | 2.0 | 2.0 | 0.00 | 0.22 | 0.22 | 87 | 1017.3 |
| 20260504021058 | 74 | 339 | 1.0 | 2.0 | 0.00 | 0.22 | 0.22 | 87 | 1017.3 |
| 20260504020555 | 74 | 332 | 0.0 | 0.0 | 0.00 | 0.22 | 0.22 | 87 | 1017.1 |
| 20260504020051 | 74 | 346 | 2.0 | 3.0 | 0.00 | 0.22 | 0.22 | 87 | 1017.1 |
| 20260504015548 | 74 | 335 | 1.0 | 1.0 | 0.00 | 0.22 | 0.22 | 87 | 1017.3 |
| 20260504015044 | 74 | 329 | 0.0 | 0.0 | 0.00 | 0.22 | 0.22 | 87 | 1017.0 |
| 20260504014540 | 74 | 52 | 1.0 | 1.0 | 0.00 | 0.22 | 0.22 | 87 | 1017.0 |
| 20260504014038 | 74 | 285 | 1.0 | 1.0 | 0.00 | 0.22 | 0.22 | 87 | 1016.9 |
| 20260504013535 | 74 | 339 | 0.0 | 0.0 | 0.00 | 0.22 | 0.22 | 88 | 1017.0 |
| 20260504013032 | 74 | 17 | 0.0 | 0.0 | 0.00 | 0.22 | 0.22 | 87 | 1016.9 |
| 20260504012530 | 74 | 346 | 0.0 | 0.0 | 0.00 | 0.22 | 0.22 | 88 | 1016.8 |
| 20260504012027 | 74 | 0 | 0.0 | 0.0 | 0.00 | 0.22 | 0.22 | 88 | 1017.3 |
| 20260504011524 | 74 | 76 | 2.0 | 3.0 | 0.00 | 0.22 | 0.22 | 88 | 1016.9 |
| 20260504011020 | 74 | 346 | 0.0 | 0.0 | 0.00 | 0.22 | 0.22 | 88 | 1016.8 |
| 20260504010515 | 74 | 171 | 3.0 | 3.0 | 0.00 | 0.22 | 0.22 | 87 | 1017.0 |
| 20260504010012 | 74 | 6 | 1.0 | 2.0 | 0.00 | 0.22 | 0.22 | 87 | 1016.7 |
| 20260504005509 | 75 | 29 | 3.0 | 3.0 | 0.00 | 0.22 | 0.22 | 87 | 1017.1 |
| 20260504005006 | 75 | 351 | 1.0 | 2.0 | 0.00 | 0.22 | 0.22 | 86 | 1016.5 |
| 20260504004504 | 75 | 3 | 0.0 | 1.0 | 0.00 | 0.22 | 0.22 | 86 | 1016.5 |
| 20260504004000 | 75 | 343 | 1.0 | 2.0 | 0.00 | 0.22 | 0.22 | 85 | 1016.6 |
| 20260504003456 | 75 | 351 | 1.0 | 2.0 | 0.00 | 0.22 | 0.22 | 85 | 1016.6 |
| 20260504002954 | 75 | 355 | 1.0 | 1.0 | 0.00 | 0.22 | 0.22 | 85 | 1016.7 |
| 20260504002450 | 75 | 340 | 0.0 | 1.0 | 0.00 | 0.22 | 0.22 | 85 | 1016.6 |
| 20260504001948 | 75 | 335 | 0.0 | 0.0 | 0.00 | 0.22 | 0.22 | 84 | 1016.4 |
| 20260504001445 | 75 | 330 | 0.0 | 0.0 | 0.00 | 0.22 | 0.22 | 83 | 1016.5 |
| 20260504000942 | 75 | 345 | 0.0 | 0.0 | 0.00 | 0.22 | 0.22 | 83 | 1016.4 |
| 20260504000439 | 75 | 351 | 0.0 | 0.0 | 0.00 | 0.22 | 0.22 | 83 | 1016.3 |
| 20260503235936 | 75 | 328 | 0.0 | 0.0 | 0.00 | 0.22 | 0.22 | 83 | 1016.4 |
| 20260503235434 | 75 | 344 | 0.0 | 0.0 | 0.00 | 0.22 | 0.22 | 83 | 1016.2 |
| 20260503234931 | 75 | 10 | 2.0 | 2.0 | 0.00 | 0.22 | 0.22 | 83 | 1016.1 |
| 20260503234428 | 75 | 320 | 0.0 | 0.0 | 0.00 | 0.22 | 0.22 | 83 | 1016.5 |
| 20260503233926 | 75 | 347 | 1.0 | 1.0 | 0.00 | 0.22 | 0.22 | 83 | 1016.4 |
| 20260503233423 | 76 | 347 | 0.0 | 0.0 | 0.00 | 0.22 | 0.22 | 82 | 1016.3 |
| 20260503232919 | 76 | 338 | 1.0 | 1.0 | 0.00 | 0.22 | 0.22 | 82 | 1016.2 |
| 20260503232416 | 76 | 69 | 1.0 | 1.0 | 0.00 | 0.22 | 0.22 | 82 | 1016.1 |
| 20260503231914 | 76 | 319 | 0.0 | 0.0 | 0.00 | 0.22 | 0.22 | 82 | 1016.2 |
| 20260503231411 | 76 | 11 | 0.0 | 1.0 | 0.00 | 0.22 | 0.22 | 82 | 1016.0 |
| 20260503230907 | 76 | 319 | 2.0 | 2.0 | 0.00 | 0.22 | 0.22 | 82 | 1015.9 |
| 20260503230404 | 76 | 336 | 0.0 | 1.0 | 0.00 | 0.22 | 0.22 | 81 | 1016.2 |
| 20260503225902 | 76 | 327 | 1.0 | 2.0 | 0.00 | 0.22 | 0.22 | 82 | 1016.3 |
| 20260503225357 | 76 | 339 | 0.0 | 1.0 | 0.00 | 0.22 | 0.22 | 82 | 1015.7 |
| 20260503224854 | 76 | 0 | 2.0 | 2.0 | 0.00 | 0.22 | 0.22 | 82 | 1015.9 |
| 20260503224351 | 76 | 356 | 0.0 | 0.0 | 0.00 | 0.22 | 0.22 | 82 | 1015.9 |
| 20260503223849 | 76 | 345 | 0.0 | 1.0 | 0.00 | 0.22 | 0.22 | 82 | 1015.9 |
| 20260503223347 | 76 | 17 | 1.0 | 1.0 | 0.00 | 0.22 | 0.22 | 81 | 1016.1 |
| 20260503222842 | 77 | 329 | 0.0 | 1.0 | 0.00 | 0.22 | 0.22 | 80 | 1016.0 |
| 20260503222341 | 76 | 337 | 0.0 | 0.0 | 0.00 | 0.22 | 0.22 | 81 | 1016.0 |
| 20260503221838 | 76 | 325 | 0.0 | 2.0 | 0.00 | 0.22 | 0.22 | 80 | 1016.0 |
| 20260503221337 | 76 | 344 | 0.0 | 1.0 | 0.00 | 0.22 | 0.22 | 81 | 1016.2 |
| 20260503220832 | 77 | 103 | 3.0 | 5.0 | 0.00 | 0.22 | 0.22 | 80 | 1016.1 |
| 20260503220329 | 77 | 49 | 1.0 | 2.0 | 0.00 | 0.22 | 0.22 | 80 | 1016.0 |
| 20260503215826 | 77 | 84 | 2.0 | 5.0 | 0.00 | 0.22 | 0.22 | 79 | 1016.1 |
| 20260503215323 | 77 | 88 | 1.0 | 1.0 | 0.00 | 0.22 | 0.22 | 80 | 1016.2 |
| 20260503214821 | 77 | 30 | 2.0 | 3.0 | 0.00 | 0.22 | 0.22 | 81 | 1016.2 |
| 20260503214318 | 77 | 56 | 3.0 | 3.0 | 0.00 | 0.22 | 0.22 | 80 | 1016.2 |
| 20260503213815 | 77 | 6 | 1.0 | 1.0 | 0.00 | 0.22 | 0.22 | 79 | 1016.1 |
| 20260503213313 | 77 | 104 | 3.0 | 3.0 | 0.00 | 0.22 | 0.22 | 79 | 1016.1 |
| 20260503212804 | 77 | 345 | 0.0 | 0.0 | 0.00 | 0.22 | 0.22 | 80 | 1016.2 |
| 20260503212302 | 77 | 142 | 6.0 | 9.0 | 0.00 | 0.22 | 0.22 | 78 | 1016.2 |
| 20260503211759 | 77 | 179 | 1.0 | 2.0 | 0.00 | 0.22 | 0.22 | 79 | 1016.1 |
| 20260503211255 | 77 | 355 | 2.0 | 3.0 | 0.00 | 0.22 | 0.22 | 79 | 1016.2 |
| 20260503210755 | 77 | 43 | 1.0 | 1.0 | 0.00 | 0.22 | 0.22 | 78 | 1016.2 |
| 20260503210253 | 77 | 154 | 3.0 | 3.0 | 0.00 | 0.22 | 0.22 | 79 | 1016.2 |
| 20260503205748 | 77 | 330 | 0.0 | 0.0 | 0.00 | 0.22 | 0.22 | 81 | 1016.2 |
| 20260503205245 | 77 | 340 | 0.0 | 1.0 | 0.00 | 0.22 | 0.22 | 81 | 1016.5 |
| 20260503204741 | 76 | 4 | 1.0 | 1.0 | 0.00 | 0.22 | 0.22 | 81 | 1016.4 |
| 20260503204239 | 77 | 79 | 1.0 | 2.0 | 0.00 | 0.22 | 0.22 | 81 | 1016.4 |
| 20260503203736 | 77 | 337 | 2.0 | 2.0 | 0.00 | 0.22 | 0.22 | 82 | 1016.6 |
| 20260503203233 | 76 | 94 | 4.0 | 6.0 | 0.00 | 0.22 | 0.22 | 80 | 1016.8 |
| 20260503202730 | 76 | 228 | 2.0 | 3.0 | 0.00 | 0.22 | 0.22 | 80 | 1016.9 |
| 20260503202229 | 77 | 9 | 2.0 | 3.0 | 0.00 | 0.22 | 0.22 | 80 | 1016.7 |
| 20260503201726 | 77 | 327 | 0.0 | 0.0 | 0.00 | 0.22 | 0.22 | 81 | 1016.7 |
| 20260503201224 | 77 | 12 | 2.0 | 2.0 | 0.00 | 0.22 | 0.22 | 80 | 1016.5 |
| 20260503200720 | 76 | 101 | 1.0 | 1.0 | 0.00 | 0.22 | 0.22 | 80 | 1016.6 |
| 20260503200216 | 77 | 99 | 1.0 | 2.0 | 0.00 | 0.22 | 0.22 | 80 | 1016.8 |
| 20260503195713 | 77 | 25 | 1.0 | 1.0 | 0.00 | 0.22 | 0.22 | 80 | 1016.8 |
| 20260503195210 | 77 | 8 | 6.0 | 7.0 | 0.00 | 0.22 | 0.22 | 80 | 1016.8 |
| 20260503194707 | 77 | 69 | 1.0 | 2.0 | 0.00 | 0.22 | 0.22 | 80 | 1016.8 |
| 20260503194203 | 77 | 45 | 3.0 | 3.0 | 0.00 | 0.22 | 0.22 | 80 | 1016.7 |
| 20260503193659 | 77 | 19 | 1.0 | 2.0 | 0.00 | 0.22 | 0.22 | 79 | 1016.8 |
| 20260503193155 | 77 | 344 | 1.0 | 1.0 | 0.00 | 0.22 | 0.22 | 79 | 1016.7 |
| 20260503192651 | 77 | 4 | 5.0 | 9.0 | 0.00 | 0.22 | 0.22 | 78 | 1016.8 |
| 20260503192147 | 77 | 108 | 1.0 | 3.0 | 0.00 | 0.22 | 0.22 | 81 | 1016.8 |
| 20260503191643 | 76 | 351 | 3.0 | 6.0 | 0.00 | 0.22 | 0.22 | 80 | 1016.8 |
| 20260503191140 | 77 | 168 | 2.0 | 2.0 | 0.00 | 0.22 | 0.22 | 80 | 1017.0 |
| 20260503190637 | 77 | 142 | 4.0 | 6.0 | 0.00 | 0.22 | 0.22 | 79 | 1017.1 |
| 20260503190134 | 78 | 292 | 3.0 | 6.0 | 0.00 | 0.22 | 0.22 | 79 | 1017.2 |
| 20260503185631 | 77 | 23 | 2.0 | 3.0 | 0.00 | 0.22 | 0.22 | 80 | 1017.3 |
| 20260503185126 | 77 | 24 | 3.0 | 5.0 | 0.00 | 0.22 | 0.22 | 80 | 1017.5 |
| 20260503184621 | 76 | 357 | 7.0 | 11.0 | 0.00 | 0.22 | 0.22 | 82 | 1017.4 |
| 20260503184118 | 76 | 38 | 1.0 | 2.0 | 0.00 | 0.22 | 0.22 | 84 | 1017.6 |
| 20260503183615 | 75 | 340 | 0.0 | 1.0 | 0.00 | 0.22 | 0.22 | 84 | 1017.7 |
| 20260503183112 | 75 | 355 | 1.0 | 2.0 | 0.00 | 0.22 | 0.22 | 85 | 1017.7 |
| 20260503182610 | 75 | 348 | 4.0 | 7.0 | 0.00 | 0.22 | 0.22 | 86 | 1017.7 |
| 20260503182108 | 75 | 331 | 3.0 | 6.0 | 0.00 | 0.22 | 0.22 | 87 | 1017.8 |
| 20260503181605 | 74 | 348 | 1.0 | 2.0 | 0.00 | 0.22 | 0.22 | 88 | 1017.9 |
| 20260503181102 | 74 | 12 | 2.0 | 3.0 | 0.00 | 0.22 | 0.22 | 88 | 1018.0 |
| 20260503180559 | 75 | 353 | 1.0 | 2.0 | 0.00 | 0.22 | 0.22 | 88 | 1018.2 |
| 20260503180056 | 76 | 347 | 2.0 | 5.0 | 0.00 | 0.22 | 0.22 | 85 | 1018.1 |
| 20260503175553 | 76 | 78 | 4.0 | 5.0 | 0.00 | 0.22 | 0.22 | 84 | 1018.2 |
| 20260503175050 | 75 | 147 | 2.0 | 2.0 | 0.00 | 0.22 | 0.22 | 84 | 1017.9 |
| 20260503174547 | 75 | 34 | 2.0 | 2.0 | 0.00 | 0.22 | 0.22 | 84 | 1018.1 |
| 20260503174044 | 76 | 114 | 0.0 | 0.0 | 0.00 | 0.22 | 0.22 | 84 | 1018.2 |
| 20260503173539 | 75 | 26 | 3.0 | 5.0 | 0.00 | 0.22 | 0.22 | 84 | 1017.8 |
| 20260503173035 | 75 | 72 | 1.0 | 2.0 | 0.00 | 0.22 | 0.22 | 84 | 1017.9 |
| 20260503172533 | 75 | 3 | 1.0 | 1.0 | 0.00 | 0.22 | 0.22 | 84 | 1018.1 |
| 20260503172030 | 75 | 317 | 1.0 | 1.0 | 0.00 | 0.22 | 0.22 | 84 | 1018.3 |
| 20260503171526 | 75 | 329 | 0.0 | 0.0 | 0.00 | 0.22 | 0.22 | 85 | 1018.1 |
| 20260503171024 | 75 | 328 | 1.0 | 2.0 | 0.00 | 0.22 | 0.22 | 85 | 1018.1 |
| 20260503170520 | 75 | 46 | 2.0 | 5.0 | 0.00 | 0.22 | 0.22 | 85 | 1018.2 |
| 20260503150907 | 73 | 315 | 1.0 | 2.0 | 0.00 | 0.22 | 0.22 | 93 | 1018.4 |
| 20260503150403 | 74 | 6 | 2.0 | 2.0 | 0.00 | 0.22 | 0.22 | 93 | 1018.1 |
| 20260503131256 | 70 | 3 | 1.0 | 2.0 | 0.00 | 0.22 | 0.22 | 99 | 1016.9 |
| 20260503130754 | 70 | 1 | 2.0 | 2.0 | 0.00 | 0.22 | 0.22 | 99 | 1017.0 |
| 20260503130251 | 70 | 345 | 2.0 | 3.0 | 0.00 | 0.22 | 0.22 | 99 | 1016.9 |
| 20260503120217 | 70 | 345 | 3.0 | 3.0 | 0.00 | 0.22 | 0.22 | 99 | 1016.4 |
| 20260503110644 | 70 | 332 | 3.0 | 3.0 | 0.07 | 0.22 | 0.22 | 99 | 1015.6 |
| 20260503110142 | 70 | 1 | 7.0 | 8.0 | 0.07 | 0.22 | 0.22 | 99 | 1015.6 |